Regional Weather Roundup
Issued by NWS

Home | Current Version | Previous Version | Text Only | Print | Product List | Glossary Off
Versions: 1 2 3 4 5 6 7 8 9 10 11 12 13 14 15 16 17 18 19 20 21 22 23 24 25 26 27 28 29 30 31 32 33 34 35 36 37 38 39 40 41 42 43 44 45 46 47 48 49 50

000
ASUS44 KMEG 290500
RWRTN
TENNESSEE HOURLY STATE WEATHER ROUNDUP
NATIONAL WEATHER SERVICE MEMPHIS TN
1200 AM CDT SAT APR 29 2017

TNZ002-004-019-021-049-052-054-088>092-290600-
WEST TENNESSEE

CITY           SKY/WX    TMP DP  RH WIND       PRES   REMARKS
MEMPHIS INTL   PTCLDY    78  70  76 S15G22    29.85S
NWS MEMPHIS      N/A     78 N/A N/A MISG        N/A
JACKSON        CLEAR     78  69  73 S16G26    29.85F
DYERSBURG      CLEAR     78  69  73 S10G20    29.80F
$$

TNZ008-025-027-028-033-062-065-066-290600-
NORTH MIDDLE TENNESSEE

CITY           SKY/WX    TMP DP  RH WIND       PRES   REMARKS
NASHVILLE      CLEAR     78  67  68 S21G30    29.88F
CLARKSVILLE    CLOUDY    77  66  68 S18G28    29.85R
SMYRNA         CLEAR     77  67  71 S10G17    29.91F
CROSSVILLE     CLEAR     72  64  76 S12G22    30.04F
$$

TNZ061-075-076-078-094-096-097-290600-
SOUTH MIDDLE TENNESSEE

CITY           SKY/WX    TMP DP  RH WIND       PRES   REMARKS
WINCHESTER     CLEAR     73  66  78 SE6       30.03R
COLUMBIA       CLEAR     75  75 100 S13       29.92F
SHELBYVILLE    CLEAR     77  70  78 S14       29.96F
$$

TNZ017-018-042-046-047-290600-
NORTHEAST TENNESSEE

CITY           SKY/WX    TMP DP  RH WIND       PRES   REMARKS
TRI CITIES     CLEAR     65  60  84 N3        30.08R
$$

TNZ012-013-036-069-073-074-290600-
CENTRAL EAST TENNESSEE

CITY           SKY/WX    TMP DP  RH WIND       PRES   REMARKS
KNOXVILLE      CLEAR     72  62  71 S8        30.01F
OAK RIDGE      CLEAR     76  63  64 VRB6      30.03F
GATLINBURG     CLEAR     64  63  94 CALM      30.02S
$$

TNZ083-085-099-290600-
SOUTHEAST TENNESSEE

CITY           SKY/WX    TMP DP  RH WIND       PRES   REMARKS
CHATTANOOGA    CLEAR     70  66  87 CALM      30.05S
$$

SKY/WX REPORTED AS FAIR MEANS FEW OR NO CLOUDS BELOW
12 THOUSAND FEET.




USA.gov is the U.S. government's official web portal to all federal, state and local government web resources and services.